Location: Unspecified
(0.0000°N, 0.0000°E)
Time: 14:11:26
(UTC+02:00)

Vanguard 1 - Visible Passes

Search period start: 22 June 2017 00:00
Search period end: 02 July 2017 00:00
Orbit: 654 x 3830 km, 34.2° (Epoch: 21 June)

Date Brightness Start Highest point End Pass type
(mag) Time Alt. Az. Time Alt. Az. Time Alt. Az.
22 Jun 14.0 02:49:58 16° SE 02:49:58 16° SE 02:54:25 10° ESE visible
22 Jun 13.1 05:02:41 38° S 05:10:06 46° SSE 05:26:24 10° E visible
22 Jun 12.3 07:15:25 10° SW 07:36:57 80° NW 07:49:17 10° NE visible
22 Jun 12.8 21:49:37 10° WSW 21:57:19 24° SSW 22:04:08 17° SSE visible
23 Jun 13.8 03:09:56 23° SE 03:09:56 23° SE 03:19:00 10° ESE visible
23 Jun 12.8 05:22:40 39° SSW 05:32:26 57° SSE 05:48:34 10° ENE visible
23 Jun 12.4 07:37:32 10° WSW 07:58:17 63° NW 08:10:09 10° NE visible
23 Jun 13.0 22:12:37 10° SW 22:19:58 19° SSW 22:24:01 17° S visible
24 Jun 13.5 03:29:55 30° SE 03:29:55 30° SE 03:43:01 10° E visible
24 Jun 12.6 05:42:38 37° SW 05:54:30 70° SE 06:10:20 10° ENE visible
24 Jun 12.0 20:10:06 10° W 20:16:16 32° SSW 20:26:28 10° SE visible
24 Jun 13.3 22:36:03 10° SW 22:42:56 16° S 22:43:53 16° S visible
25 Jun 13.3 03:49:52 39° SE 03:49:52 39° SE 04:06:22 10° E visible
25 Jun 12.5 06:02:36 33° SW 06:16:19 85° SE 06:31:46 10° NE visible
25 Jun 12.4 20:32:19 10° WSW 20:38:17 23° SSW 20:47:22 10° SSE visible
25 Jun 13.4 22:59:39 10° SSW 23:03:44 14° S 23:03:44 14° S visible
26 Jun 13.0 04:09:49 49° SSE 04:10:22 49° SSE 04:29:09 10° ENE visible
26 Jun 12.5 06:22:33 28° WSW 06:37:57 79° NW 06:52:55 10° NE visible
26 Jun 12.7 20:55:06 10° SW 21:00:32 18° SSW 21:08:07 10° SSE visible
26 Jun 13.5 23:22:50 10° SSW 23:23:33 11° SSW 23:23:33 11° SSW visible
27 Jun 14.0 02:17:01 15° ESE 02:17:01 15° ESE 02:20:17 10° ESE visible
27 Jun 12.8 04:29:44 58° SSE 04:32:37 60° SE 04:51:24 10° ENE visible
27 Jun 12.6 06:42:28 22° WSW 06:59:27 63° NW 07:13:52 10° NE visible
27 Jun 13.0 21:18:36 10° SW 21:23:05 14° S 21:28:44 10° SSE visible
28 Jun 13.8 02:36:55 23° ESE 02:36:55 23° ESE 02:44:35 10° E visible
28 Jun 12.7 04:49:39 62° SSW 04:54:39 73° SE 05:13:15 10° ENE visible
28 Jun 12.8 07:02:22 15° WSW 07:20:54 50° NW 07:34:36 10° NNE visible
28 Jun 13.2 21:42:58 10° SSW 21:45:54 11° S 21:49:14 10° SSE visible
29 Jun 13.5 02:56:47 32° ESE 02:56:47 32° ESE 03:08:10 10° E visible
29 Jun 12.6 05:09:30 59° SW 05:16:30 87° SE 05:34:46 10° NE visible
29 Jun 13.0 07:22:59 10° W 07:42:24 39° NW 07:55:11 10° NNE visible
30 Jun 13.2 03:16:36 44° ESE 03:16:36 44° ESE 03:31:06 10° ENE visible
30 Jun 12.6 05:29:20 50° WSW 05:38:14 78° NW 05:56:00 10° NE visible
01 Jul 12.9 03:36:23 57° ESE 03:36:23 57° ESE 03:53:30 10° ENE visible
01 Jul 12.8 05:49:06 40° WSW 05:59:54 64° NW 06:17:02 10° NE visible
